Stony Rapids, Saskatchewan

2:49 AM CST on July 25, 2017 (GMT -0600)
Stony Rapids

Weather History for CYSF - December, 2012

Change the Weather History Date:

Sunday, December 30, 2012

  Actual Average Record
Temperature  
Mean Temperature -22 °F -  
Max Temperature -13 °F -1 °F 30 °F (2006)
Min Temperature -31 °F -18 °F -47 °F (1996)
Degree Days  
Heating Degree Days 88    
Moisture  
Dew Point -30 °F    
Average Humidity 72    
Maximum Humidity 77    
Minimum Humidity 53    
Precipitation  
Precipitation 0.00 in - - ()
Sea Level Pressure  
Sea Level Pressure 30.23 in    
Wind  
Wind Speed 2 mph ()    
Max Wind Speed 5 mph    
Max Gust Speed -    
Visibility 6.8 miles    
Events      
Averages and records for this station are not official NWS values.
T = Trace of Precipitation, MM = Missing Value Source: Averaged Metar Reports

Daily Weather History Graph

Daily Weather History Graph

Search for Another Location

Airport or City:

Trip Planner

Search our weather history database for the weather conditions in past years. The results will help you decide how hot, cold, wet, or windy it might be!

Date:

Astronomy

Dec. 30, 2012 Rise Set
Actual Time 9:59 AM CST 4:13 PM CST
Civil Twilight 9:04 AM CST 5:07 PM CST
Nautical Twilight 8:09 AM CST 6:02 PM CST
Astronomical Twilight 7:19 AM CST 6:52 PM CST
Moon 7:32 PM CST (12/30) 10:29 AM CST (12/30)
Length of Visible Light 8h 03m
Length of Day
6h 13m
Waning Gibbous, 95% of the Moon is Illuminated
Dec 30
Waning Gibbous
Jan 4
Last Quarter
Jan 11
New
Jan 18
First Quarter
Jan 26
Full

Hourly Weather History & Observations

Time (CST) Temp. Windchill Dew Point Humidity Pressure Visibility Wind Dir Wind Speed Gust Speed Precip Events Conditions
12:00 AM -18 °F - -24 °F 62% 30.15 in 10 mi SE 2.3 mph - -  
12:00 AM -18.4 °F - -23.8 °F 76% 30.15 in 9.0 mi SSE 2.3 mph - N/A   Clear
1:00 AM -22.0 °F - -27.4 °F 76% 30.16 in 9.0 mi Variable 2.3 mph - N/A   Mostly Cloudy
2:00 AM -22.0 °F - -29.2 °F 69% 30.18 in 9.0 mi South 2.3 mph - N/A   Clear
2:50 AM -22.0 °F -33.0 °F -29.2 °F 69% 30.20 in 9.0 mi East 3.5 mph - N/A   Partly Cloudy
2:52 AM -22.0 °F -33.0 °F -27.4 °F 76% 30.20 in 4.0 mi East 3.5 mph - N/A   Haze
2:53 AM -22.0 °F -33.0 °F -27.4 °F 76% 30.20 in 2.5 mi East 3.5 mph - N/A   Haze
3:00 AM -23.8 °F - -29.2 °F 76% 30.20 in 2.5 mi Variable 2.3 mph - N/A   Haze
3:01 AM -23.8 °F - -31.0 °F 69% 30.20 in 3.0 mi Variable 2.3 mph - N/A   Haze
3:03 AM -23.8 °F -35.0 °F -31.0 °F 69% 30.20 in 9.0 mi ESE 3.5 mph - N/A   Partly Cloudy
4:00 AM -23.8 °F - -29.2 °F 76% 30.22 in 9.0 mi Variable 2.3 mph - N/A   Clear
4:29 AM -23.8 °F -35.0 °F -31.0 °F 69% 30.22 in 7.0 mi East 3.5 mph - N/A   Partly Cloudy
4:33 AM -23.8 °F - -31.0 °F 69% 30.22 in 5.0 mi East 2.3 mph - N/A   Haze
4:35 AM -23.8 °F - -29.2 °F 76% 30.23 in 7.0 mi East 2.3 mph - N/A   Scattered Clouds
4:38 AM -23.8 °F -35.0 °F -29.2 °F 76% 30.23 in 4.0 mi East 3.5 mph - N/A   Haze
4:46 AM -23.8 °F - -29.2 °F 76% 30.23 in 6.0 mi Calm Calm - N/A   Haze
5:00 AM -25.6 °F - -32.8 °F 69% 30.23 in 9.0 mi Calm Calm - N/A   Partly Cloudy
6:00 AM -25 °F - -32 °F 53% 30.23 in 10 mi ENE 1.2 mph - -  
7:00 AM -29.2 °F - -36.4 °F 68% 30.24 in 9.0 mi Calm Calm - N/A   Clear
8:00 AM -27.4 °F - -34.6 °F 69% 30.25 in 9.0 mi Calm Calm - N/A   Clear
8:30 AM -29.2 °F - -36.4 °F 68% 30.25 in 9.0 mi Calm Calm - N/A   Partly Cloudy
8:39 AM -31.0 °F - -38.2 °F 68% 30.25 in 9.0 mi ESE 2.3 mph - N/A   Mostly Cloudy
8:52 AM -29.2 °F - -36.4 °F 68% 30.25 in 1.8 mi Calm Calm - N/A   Haze
8:53 AM -29.2 °F - -36.4 °F 68% 30.25 in 0.8 mi East 2.3 mph - N/A   Haze
9:00 AM -29.2 °F -41.2 °F -34.6 °F 75% 30.25 in 0.2 mi East 3.5 mph - N/A   Haze
9:15 AM -27.4 °F - -34.6 °F 69% 30.26 in 1.8 mi ESE 2.3 mph - N/A   Haze
9:16 AM -27.4 °F - -34.6 °F 69% 30.26 in 3.0 mi ESE 2.3 mph - N/A   Haze
9:17 AM -27.4 °F - -32.8 °F 75% 30.26 in 7.0 mi SE 2.3 mph - N/A   Scattered Clouds
10:00 AM -25.6 °F -37.1 °F -32.8 °F 69% 30.25 in 9.0 mi East 3.5 mph - N/A   Clear
10:43 AM -27.4 °F - -34.6 °F 69% 30.27 in 9.0 mi Calm Calm - N/A   Partly Cloudy
10:52 AM -25.6 °F - -32.8 °F 69% 30.27 in 9.0 mi Calm Calm - N/A   Mostly Cloudy
10:53 AM -25.6 °F - -32.8 °F 69% 30.27 in 4.0 mi Calm Calm - N/A   Haze
10:54 AM -25.6 °F - -32.8 °F 69% 30.27 in 2.2 mi Calm Calm - N/A   Haze
10:56 AM -25.6 °F - -31.0 °F 76% 30.27 in 1.0 mi Calm Calm - N/A   Haze
11:00 AM -25.6 °F - -31.0 °F 76% 30.28 in 1.0 mi Calm Calm - N/A   Haze
11:05 AM -25.6 °F -37.1 °F -31.0 °F 76% 30.27 in 1.5 mi ESE 3.5 mph - N/A   Haze
11:06 AM -25.6 °F -37.1 °F -31.0 °F 76% 30.27 in 2.5 mi ESE 3.5 mph - N/A   Haze
11:07 AM -25.6 °F -37.1 °F -31.0 °F 76% 30.27 in 5.0 mi ESE 3.5 mph - N/A   Haze
11:08 AM -25.6 °F -37.1 °F -31.0 °F 76% 30.27 in 8.0 mi East 3.5 mph - N/A   Mostly Cloudy
11:13 AM -25.6 °F - -31.0 °F 76% 30.28 in 9.0 mi East 2.3 mph - N/A   Scattered Clouds
12:00 PM -22 °F - -28 °F 58% 30.27 in 10 mi ESE 2.3 mph - -  
12:00 PM -22.0 °F - -29.2 °F 69% 30.27 in 9.0 mi ESE 2.3 mph - N/A   Clear
1:00 PM -18.4 °F - -23.8 °F 76% 30.26 in 9.0 mi Calm Calm - N/A   Clear
2:00 PM -16.6 °F - -22.0 °F 76% 30.26 in 9.0 mi Calm Calm - N/A   Clear
3:00 PM -14.8 °F - -20.2 °F 77% 30.25 in 9.0 mi Variable 2.3 mph - N/A   Clear
4:00 PM -14.8 °F - -22.0 °F 70% 30.24 in 9.0 mi Calm Calm - N/A   Clear
4:59 PM -20.2 °F -30.9 °F -25.6 °F 76% 30.23 in 9.0 mi ESE 3.5 mph - N/A   Mostly Cloudy
5:00 PM -18.4 °F -28.9 °F -25.6 °F 70% 30.23 in 9.0 mi SE 3.5 mph - N/A   Mostly Cloudy
5:31 PM -18.4 °F - -25.6 °F 70% 30.24 in 9.0 mi Calm Calm - N/A   Scattered Clouds
6:00 PM -22 °F - -28 °F 61% 30.23 in 10 mi East 2.3 mph - -  
6:00 PM -22.0 °F -35.6 °F -27.4 °F 76% 30.23 in 9.0 mi ESE 4.6 mph - N/A   Clear
7:00 PM -22.0 °F -33.0 °F -27.4 °F 76% 30.22 in 9.0 mi ESE 3.5 mph - N/A   Clear
8:00 PM -16.6 °F -26.8 °F -23.8 °F 70% 30.21 in 9.0 mi East 3.5 mph - N/A   Overcast
9:00 PM -18.4 °F -31.4 °F -23.8 °F 76% 30.19 in 9.0 mi ESE 4.6 mph - N/A   Overcast
10:00 PM -16.6 °F -26.8 °F -22.0 °F 76% 30.16 in 9.0 mi East 3.5 mph - N/A   Mostly Cloudy
11:00 PM -13.0 °F - -18.4 °F 77% 30.15 in 9.0 mi East 2.3 mph - N/A   Overcast